{"data":{"norad_id":63140,"intl_designator":"2025-043J","name":"STARLINK-11607 [DTC]","alt_names":[],"object_type":"PAYLOAD","status":"ACTIVE","operator":null,"country":"US","launch_date":"2025-03-03","launch_site_code":"AFETR","launch_vehicle":null,"mission":null,"orbit_class":"UNKNOWN","rcs_meters":null,"size_class":null,"mass_kg":null,"dimensions":null,"purposes":["comms"],"wikipedia_slug":null,"has_3d_model":false,"image_url":null,"decayed_at":null,"tle_current":{"epoch":"2026-09-21T01:43:05.456352Z","epoch_age_seconds":112867,"freshness":"FRESH","line1":"1 63140U 25043J   26264.07159093  .00131819  00000+0  10136-2 0  9997","line2":"2 63140  43.0020 152.7461 0001611 285.7553  74.3137 15.70862923 90204","mean_motion":15.70862923,"eccentricity":0.0001611,"inclination_deg":43.002,"raan_deg":152.7461,"arg_perigee_deg":285.7553,"mean_anomaly_deg":74.3137,"bstar":0.0010136,"rev_number":9020,"period_min":91.669360764459,"perigee_km":355.34460547093,"apogee_km":357.51448281145,"semimajor_km":6734.5665441412,"source":"CELESTRAK","updated_at":"2026-09-22T09:00:49.791519Z"}}}